IZ3VCM Weather Reports


Display with metric or nautical units.
time (UTC)temp
F
wind
direction
speed
MPH
gust
MPH
rain 1hr
in
rain 24hr
in
rain mn
in
humidity
%
barometer
mb
20260507203005 60 0 0.0 0.0 0.00 0.00 0.00 76 1013.9
20260507201503 60 181 1.0 5.0 0.00 0.00 0.00 75 1013.7
20260507200005 60 0 0.0 0.0 0.00 0.00 0.00 73 1013.7
20260507194503 61 135 1.0 4.0 0.00 0.00 0.00 72 1013.5
20260507193005 62 0 0.0 0.0 0.00 0.00 0.00 71 1013.4
20260507191502 63 181 0.0 2.0 0.00 0.00 0.00 68 1013.1
20260507190006 64 0 0.0 0.0 0.00 0.00 0.00 66 1012.9
20260507184502 65 181 0.0 3.0 0.00 0.00 0.00 65 1012.7
20260507183005 67 181 1.0 2.0 0.00 0.00 0.00 63 1012.4
20260507181502 68 165 2.0 4.0 0.00 0.00 0.00 58 1012.3
20260507180005 70 0 0.0 0.0 0.00 0.00 0.00 53 1012.1
20260507174503 73 203 0.0 1.0 0.00 0.00 0.00 50 1011.7
20260507173005 74 181 0.0 2.0 0.00 0.00 0.00 47 1011.5
20260507171503 76 214 2.0 5.0 0.00 0.00 0.00 45 1011.6
20260507170005 77 0 0.0 0.0 0.00 0.00 0.00 44 1011.5
20260507164502 77 0 0.0 0.0 0.00 0.00 0.00 45 1011.4
20260507163005 78 0 0.0 0.0 0.00 0.00 0.00 45 1011.3
20260507161504 78 161 1.0 2.0 0.00 0.00 0.00 44 1011.4
20260507160005 78 263 1.0 3.0 0.00 0.00 0.00 43 1011.5
20260507154503 79 156 1.0 2.0 0.00 0.00 0.00 43 1011.4
20260507153005 79 225 1.0 4.0 0.00 0.00 0.00 44 1011.4
20260507151503 76 225 0.0 5.0 0.00 0.00 0.00 46 1011.5
20260507150005 76 225 0.0 5.0 0.00 0.00 0.00 46 1011.7
20260507144503 74 181 0.0 6.0 0.00 0.00 0.00 50 1011.7
20260507143005 73 156 0.0 2.0 0.00 0.00 0.00 50 1011.6
20260507141503 74 181 0.0 2.0 0.00 0.00 0.00 49 1011.7
20260507140006 74 217 2.0 5.0 0.00 0.00 0.00 47 1011.7
20260507134503 76 281 2.0 5.0 0.00 0.00 0.00 46 1011.7
20260507133005 76 203 1.0 4.0 0.00 0.00 0.00 46 1011.8
20260507131503 75 225 0.0 5.0 0.00 0.00 0.00 49 1011.8
20260507130005 75 292 1.0 3.0 0.00 0.00 0.00 48 1011.8
20260507124502 77 224 2.0 5.0 0.00 0.00 0.00 45 1011.8
20260507121502 77 265 2.0 6.0 0.00 0.00 0.00 46 1011.9
20260507120005 76 207 1.0 6.0 0.00 0.05 0.00 47 1012.0
20260507114503 74 247 0.0 1.0 0.00 0.16 0.00 50 1012.2
20260507113006 76 237 3.0 6.0 0.00 0.21 0.00 48 1012.3
20260507111503 75 231 4.0 6.0 0.00 0.21 0.00 50 1012.4
20260507110005 74 213 4.0 6.0 0.00 0.21 0.00 50 1012.5
20260507104502 74 185 5.0 7.0 0.00 0.21 0.00 51 1012.7
20260507103005 74 247 0.0 1.0 0.00 0.21 0.00 52 1012.8
20260507101502 74 218 2.0 5.0 0.00 0.21 0.00 52 1013.0
20260507100005 73 261 2.0 5.0 0.00 0.21 0.00 54 1013.0
20260507094502 72 257 2.0 4.0 0.00 0.24 0.00 55 1013.1
20260507093004 72 205 5.0 7.0 0.00 0.24 0.00 55 1013.0
20260507091503 71 259 3.0 8.0 0.00 0.24 0.00 55 1012.9
20260507090005 71 251 6.0 6.0 0.00 0.24 0.00 56 1012.9
20260507084503 71 265 2.0 4.0 0.00 0.24 0.00 59 1013.0
20260507083005 69 272 4.0 8.0 0.00 0.24 0.00 60 1013.0
20260507081503 69 284 3.0 6.0 0.00 0.24 0.00 62 1012.8
20260507074503 67 0 0.0 0.0 0.00 0.24 0.00 69 1012.9
20260507073004 66 283 1.0 2.0 0.00 0.24 0.00 75 1013.0
20260507071503 64 0 0.0 0.0 0.00 0.24 0.00 78 1013.0
20260507070009 63 203 0.0 3.0 0.00 0.24 0.00 81 1012.7
20260507064502 61 0 0.0 0.0 0.00 0.24 0.00 88 1012.7
20260506221503 56 0 0.0 0.0 0.00 0.28 0.00 91 1010.4
20260506220005 56 0 0.0 0.0 0.00 0.28 0.00 91 1010.3
20260506214503 56 0 0.0 0.0 0.00 0.28 0.28 91 1010.2
20260506213005 56 0 0.0 0.0 0.00 0.28 0.28 91 1010.2
20260506211503 57 0 0.0 0.0 0.00 0.28 0.28 90 1010.2
20260506210005 58 0 0.0 0.0 0.00 0.28 0.28 90 1010.2
20260506204504 58 0 0.0 0.0 0.00 0.28 0.28 90 1010.3